GVSVGVAC

Guest
Details From GVSV - Sao Pedro
To GVAC - Sal Amilcar Cabral Intl
Flight Number -
Tags generated
Created
Modified
Stats Distance 149 nm / 276 km
Max Altitude 15,600 ft / 4,755 m
Waypoints 4
Social Downloads 0
Likes 0
Share VATSIM

Download

Looking for another format? Having issues loading an existing format? Contact us
Advertisement - Login to hide

Notes

Basic altitude profile: - Ascent Rate: 1800ft/min - Ascent Speed: 250kts - Cruise Altitude: 15000ft - Cruise Speed: 350kts - Descent Rate: 250ft/min - Descent Speed: 250kts Options: - Use NATs: yes - Use PACOTS: yes - Use low airways: yes - Use high airways: yes

Route

GVSV VOTOL R976 CVS GVAC

ID Type Via Altitude Latitude Longitude Leg Dist Tot Dist Heading (true) Name
O GVSV APT - 0 ft / 0 m 16.83370˚ -25.05466˚ - 0 nm - Sao Pedro
VOTOL FIX - 15,600 ft / 4,755 m 17.51000˚ -24.03472˚ 71 nm 71 nm 55° / 55° -
CVS VOR R976 (AWY-LO) 8,500 ft / 2,591 m 16.73677˚ -22.95105˚ 77 nm 148 nm 127° / 127° SAL VOR-DME
O GVAC APT - 0 ft / 0 m 16.73821˚ -22.95050˚ 0 nm 148 nm 20° / 20° Sal Amilcar Cabral Intl

Altitude Profile

Advertisement - Login to hide

GVSV

Details ICAO GVSV (VXE)
Name Sao Pedro
Region Cape Verde
Timezone Atlantic/Cape_Verde (UTC-1.0)
Stats Elevation 66 ft / 20 m (AMSL)
Location 16.833703° -25.054661°
Runways 1
Magnetic Variation 10.058° W

METAR

GVSV 220600Z 07015KT 9999 SCT020 21/15 Q1016 NOSIG

Decode

TAF

TAF GVSV 212300Z 2200/2306 06016KT 9999 SCT020 BECMG 2210/2212 06022KT TEMPO 2212/2218 06022G32KT BKN020

Decode

Departure Runways

ID Width Length Bearing (true) Bearing (mag) Surface Threshold Offset Overrun Length
07 148 ft / 45 m 6,493 ft / 1,979 m 53.56° 63.62° Asphalt 1,066 ft / 325 m 0 ft / 0 m
25 148 ft / 45 m 6,493 ft / 1,979 m 233.57° 243.63° Asphalt 1,113 ft / 339 m 0 ft / 0 m

GVAC

Details ICAO GVAC (SID)
Name Sal Amilcar Cabral Intl
Region Cape Verde
Timezone Atlantic/Cape_Verde (UTC-1.0)
Stats Elevation 177 ft / 54 m (AMSL)
Location 16.738208° -22.950500°
Runways 2
Magnetic Variation 9.190° W

METAR

GVAC 220600Z 02011KT 9999 BKN014 20/16 Q1015 NOSIG

Decode

TAF

TAF GVAC 220500Z 2206/2312 03015KT 9999 BKN014

Decode

Destination Runways

ID Width Length Bearing (true) Bearing (mag) Surface Threshold Offset Overrun Length
01 148 ft / 45 m 10,826 ft / 3,300 m 359.69° 8.88° Asphalt 885 ft / 270 m 0 ft / 0 m
07 148 ft / 45 m 4,892 ft / 1,491 m 57.69° 66.88° Asphalt 200 ft / 61 m 0 ft / 0 m
19 148 ft / 45 m 10,826 ft / 3,300 m 179.69° 188.88° Asphalt 800 ft / 244 m 0 ft / 0 m
25 148 ft / 45 m 4,892 ft / 1,491 m 237.69° 246.88° Asphalt 200 ft / 61 m 0 ft / 0 m

Approach Navaids

Runway Type Ident Frequency Range Bearing (true) Bearing (mag) Slope Elevation
01 Localiser SL 109.90 MHz 18 nm / 33 km 359.58° 8.77° - 177 ft / 54 m (AMSL)
01 Glidescope SL 109.90 MHz 10 nm / 19 km 359.69° 8.88° 3.00° 177 ft / 54 m (AMSL)

Popular Alternatives